Regional Weather Roundup
Issued by NWS

Home | Current Version | Previous Version | Graphics & Text | Print | Product List | Glossary On
Versions: 1 2 3 4 5 6 7 8 9 10 11 12 13 14 15 16 17 18 19 20 21 22 23 24 25 26 27 28 29 30 31 32 33 34 35 36 37 38 39 40 41 42 43 44 45 46 47 48 49 50
000
ASUS43 KBIS 212220
RWRND

NORTH DAKOTA REGIONAL WEATHER ROUNDUP
NATIONAL WEATHER SERVICE BISMARCK ND
500 PM CDT TUE OCT 21 2014

NOTE: "FAIR" INDICATES FEW OR NO CLOUDS BELOW 12,000 FEET WITH NO
SIGNIFICANT WEATHER AND/OR OBSTRUCTIONS TO VISIBILITY.


NDZ001>003-009>011-017-212300-
NORTHWEST NORTH DAKOTA

CITY           SKY/WX    TMP DP  RH WIND       PRES   REMARKS
WILLISTON      SUNNY     75  43  31 SE12      29.58F
MINOT          SUNNY     73  42  32 SE16      29.64F
MINOT AFB      SUNNY     72  45  38 SE14      29.63F
$$

NDZ018>021-031>035-040>046-212300-
SOUTHWEST NORTH DAKOTA

CITY           SKY/WX    TMP DP  RH WIND       PRES   REMARKS
BISMARCK       SUNNY     81  49  32 S17       29.66F
DICKINSON      SUNNY     79  46  31 S13       29.60F
GARRISON         N/A     74  47  38 SE7       29.63F
HETTINGER ARPT SUNNY     82  44  26 S14G23    29.65F
$$

NDZ004>008-012>016-024-026-027-054-212300-
NORTHEAST NORTH DAKOTA

CITY           SKY/WX    TMP DP  RH WIND       PRES   REMARKS
GRAND FORKS    SUNNY     65  42  43 SE30G37   29.85F
GRND FRKS AFB  SUNNY     66  42  41 SE24G31   29.84F
DEVILS LAKE    SUNNY     66  45  45 SE23G29   29.73S
$$

NDZ022-023-025-028>030-036>039-047>053-212300-
SOUTHEAST NORTH DAKOTA

CITY           SKY/WX    TMP DP  RH WIND       PRES   REMARKS
FARGO          SUNNY     66  41  40 SE24G36   29.89S
JAMESTOWN      SUNNY     75  42  30 SE21G29   29.77F
$$




USA.gov is the U.S. government's official web portal to all federal, state and local government web resources and services.